This is the latest recevied weather packets stored in our database for station/object WP3OF-2. If no packets are shown the sender has not sent any weather packets the latest 10 day(s).
| Time | Temp. | Humidity | Pressure | Rain* | Wind** | Luminosity | Snow |
|---|---|---|---|---|---|---|---|
| 1778075502 | 22.78° C | 86% | 1029 hPa | 0 mm | - | 1026 W/m² | - |
| 1778075198 | 22.22° C | 86% | 1028.5 hPa | 0 mm | - | 974 W/m² | - |
| 1778074894 | 22.22° C | 87% | 1029 hPa | 0 mm | - | 429 W/m² | - |
| 1778074592 | 22.78° C | 86% | 1028.5 hPa | 0 mm | - | 924 W/m² | - |
| 1778074289 | 22.22° C | 87% | 1028.5 hPa | 0 mm | - | 878 W/m² | - |
| 1778073986 | 21.67° C | 88% | 1028.2 hPa | 0 mm | - | 786 W/m² | - |
| 1778073683 | 21.67° C | 89% | 1028.5 hPa | 0 mm | - | 597 W/m² | - |
| 1778073380 | 21.67° C | 88% | 1028.5 hPa | 0 mm | - | 746 W/m² | - |
| 1778073076 | 21.67° C | 88% | 1028.5 hPa | 0 mm | - | 733 W/m² | - |
| 1778072774 | 21.67° C | 88% | 1028.5 hPa | 0 mm | - | 693 W/m² | - |
| 1778072471 | 21.11° C | 89% | 1028.5 hPa | 0 mm | - | 674 W/m² | - |
| 1778072169 | 21.11° C | 89% | 1028.2 hPa | 0 mm | - | 618 W/m² | - |
| 1778071866 | 21.67° C | 88% | 1028.2 hPa | 0 mm | - | 619 W/m² | - |
| 1778071564 | 21.11° C | 89% | 1028.2 hPa | 0 mm | - | 576 W/m² | - |
| 1778071262 | 21.11° C | 89% | 1027.9 hPa | 0 mm | - | 515 W/m² | - |
| 1778070959 | 21.11° C | 90% | 1027.9 hPa | 0 mm | - | 447 W/m² | - |
| 1778070657 | 20.56° C | 90% | 1027.9 hPa | 0 mm | - | 431 W/m² | - |
| 1778070353 | 20.56° C | 91% | 1027.9 hPa | 0 mm | - | 393 W/m² | - |
| 1778070052 | 20.56° C | 91% | 1027.9 hPa | 0 mm | - | 363 W/m² | - |
| 1778069749 | 20.56° C | 90% | 1027.9 hPa | 0 mm | - | 343 W/m² | - |
| 1778069445 | 20.56° C | 91% | 1027.9 hPa | 0 mm | - | 324 W/m² | - |
| 1778069144 | 20.56° C | 91% | 1027.9 hPa | 0 mm | - | 307 W/m² | - |
| 1778068840 | 20.56° C | 91% | 1027.9 hPa | 0 mm | - | 282 W/m² | - |
| 1778068538 | 20° C | 92% | 1027.4 hPa | 0 mm | - | 265 W/m² | - |
| 1778068237 | 20° C | 92% | 1027.9 hPa | 0 mm | - | 232 W/m² | - |
* Rain latest hour (hover to see other rain measurements)
** Current wind speed in m/s (hover to see current wind gust speed)